This is the latest recevied weather packets stored in our database for station/object WL7CLI. If no packets are shown the sender has not sent any weather packets the latest 10 day(s).
| Time | Temp. | Humidity | Pressure | Rain* | Wind** | Luminosity | Snow |
|---|---|---|---|---|---|---|---|
| 1777824418 | 20° C | 41% | 1008.8 hPa | 0 mm | - | - | - |
| 1777823904 | 20° C | 44% | 1009.1 hPa | 0 mm | - | - | - |
| 1777823773 | 19.44° C | 44% | 1008.8 hPa | 0 mm | - | - | - |
| 1777823217 | 18.89° C | 43% | 1008.8 hPa | 0 mm | - | - | - |
| 1777822572 | 18.33° C | 43% | 1008.8 hPa | 0 mm | - | - | - |
| 1777822104 | 18.33° C | 43% | 1009.1 hPa | 0 mm | - | - | - |
| 1777822019 | 18.33° C | 44% | 1008.9 hPa | 0 mm | - | - | - |
| 1777821372 | 17.78° C | 45% | 1008.9 hPa | 0 mm | - | - | - |
| 1777820818 | 17.22° C | 44% | 1008.8 hPa | 0 mm | - | - | - |
| 1777820304 | 17.22° C | 44% | 1009.1 hPa | 0 mm | - | - | - |
| 1777820171 | 16.67° C | 46% | 1008.9 hPa | 0 mm | - | - | - |
| 1777819618 | 16.67° C | 46% | 1008.8 hPa | 0 mm | - | - | - |
| 1777818974 | 16.11° C | 47% | 1009 hPa | 0 mm | - | - | - |
| 1777818504 | 15.56° C | 48% | 1009.3 hPa | 0 mm | - | - | - |
| 1777818417 | 15.56° C | 50% | 1009.2 hPa | 0 mm | - | - | - |
| 1777817772 | 15° C | 49% | 1009.2 hPa | 0 mm | - | - | - |
| 1777817217 | 14.44° C | 50% | 1009.4 hPa | 0 mm | - | - | - |
| 1777816704 | 13.89° C | 50% | 1009.4 hPa | 0 mm | - | - | - |
| 1777816572 | 13.89° C | 51% | 1009.3 hPa | 0 mm | - | - | - |
| 1777816018 | 13.33° C | 51% | 1009.3 hPa | 0 mm | - | - | - |
| 1777815372 | 13.33° C | 50% | 1009.2 hPa | 0 mm | - | - | - |
| 1777814904 | 13.33° C | 50% | 1009.3 hPa | 0 mm | - | - | - |
| 1777814817 | 13.33° C | 50% | 1009.3 hPa | 0 mm | - | - | - |
| 1777814172 | 13.33° C | 49% | 1009.4 hPa | 0 mm | - | - | - |
| 1777813619 | 13.33° C | 49% | 1009.5 hPa | 0 mm | - | - | - |
* Rain latest hour (hover to see other rain measurements)
** Current wind speed in m/s (hover to see current wind gust speed)